[[{"header":{"parameterUnit":"m.s-1","parameterCategory":1,"la1":30.2991,"la2":30.254,"lo1":-89.0895,"lo2":-89.0444,"dy":0.0017,"dx":0.0017,"nx":28,"ny":28,"refTime":"2023-10-12T21:00:00:Z","depth":0,"parameterNumber":2,"parameterNumberName":"U-component_of_WINDS"},"data":[0,0,0,0,0,0,0,0,0,0,0,0,0,0,0,0,0,0,0,0,0,0,0,0,0,0,0,0,0,0,0,0,0,0,0,0,0,0,0,0,0,0,0,0,0,0,0,0,0,0,0,0,0,0,0,0,0,0,0.5422,0.5422,0,0.5477,0.5478,0.5478,0.5485,0.5484,0.5484,0.5483,0.5543,0.5545,0.5548,0,0,0,0,0,0,0,0,0,0,0,0,0,0.5325,0.5326,0.5422,0.5423,0.5423,0.5477,0.5478,0.5479,0.5485,0.5484,0.5484,0.5483,0.5543,0.5545,0.5548,0,0,0,0,0,0,0,0,0,0,0,0,0,0.5372,0.5327,0.5422,0.5433,0.5434,0.5477,0.5478,0.5479,0.5485,0.5484,0.5483,0.5483,0.5542,0.5545,0.5548,0.5584,0,0,0.5558,0.5559,0,0,0,0,0,0,0,0,0.5369,0.5376,0.5431,0.5432,0.5434,0.5473,0.5466,0.5514,0.5485,0.5466,0.5483,0.5482,0.5521,0.5526,0.5538,0.5587,0.559,0.5558,0.556,0.5561,0.5562,0,0,0,0,0,0,0,0.5366,0.5373,0.5444,0.5431,0.5433,0.5436,0.5442,0.5475,0.5498,0.5468,0.5468,0.5474,0.5522,0.5535,0.554,0.5591,0.5558,0.5561,0.5563,0.5564,0.5672,0.5673,0,0,0,0,0,0,0.536,0.5371,0.5442,0.5445,0.5399,0.5438,0.5445,0.5462,0.5497,0.5502,0.5475,0.5475,0.553,0.5536,0.5542,0.5587,0.5561,0.5564,0.5566,0.5671,0.5672,0.5673,0,0,0,0,0,0,0.5358,0.5367,0.544,0.5408,0.5418,0.5441,0.546,0.5463,0.5476,0.5503,0.5507,0.5484,0.553,0.5537,0.5573,0.5589,0.5566,0.5569,0.567,0.5671,0.5673,0.5677,0,0,0,0,0,0,0.5355,0.5366,0.5379,0.5408,0.5419,0.547,0.546,0.5465,0.5481,0.5481,0.5513,0.5517,0.553,0.5569,0.5577,0.5593,0.5571,0.5669,0.5671,0.5672,0.5675,0.5678,0.568,0,0,0,0,0,0.5352,0.5379,0.538,0.5389,0.5437,0.5471,0.5477,0.549,0.5482,0.5497,0.5514,0.5516,0.5585,0.5572,0.5581,0.5599,0.5668,0.567,0.5672,0.5674,0.5677,0.568,0,0,0,0,0,0,0.5353,0.5383,0.5385,0.5422,0.5443,0.5472,0.549,0.5493,0.5518,0.5517,0.5533,0.554,0.5575,0.5591,0.5575,0.5635,0.5626,0.563,0.5624,0.5628,0.563,0.5627,0.5574,0,0,0,0,0,0.5357,0.5381,0.5407,0.5437,0.5448,0.5467,0.5482,0.549,0.5514,0.5523,0.5543,0.5567,0.5594,0.5611,0.5638,0.5677,0.5684,0.5693,0.5696,0.5698,0.5702,0.5723,0.5728,0.568,0.568,0.568,0,0,0.5367,0.5386,0.5401,0.5438,0.5456,0.5481,0.5475,0.5502,0.5522,0.5528,0.5563,0.5578,0.5606,0.5643,0.5661,0.5657,0.5716,0.57,0.5702,0.5705,0.5726,0.573,0.5734,0.5682,0.5682,0.5681,0,0,0.5398,0.5414,0.5442,0.5459,0.5485,0.5498,0.5504,0.5532,0.5541,0.5576,0.5581,0.5605,0.5651,0.5671,0.5686,0.5723,0.5726,0.5731,0.5745,0.5766,0.577,0.5773,0.5787,0.5791,0.5734,0.5734,0.5734,0,0.5407,0.5445,0.5455,0.5483,0.5499,0.5504,0.5532,0.5548,0.5583,0.5594,0.5589,0.5646,0.5665,0.5707,0.5716,0.5728,0.5737,0.5728,0.5768,0.5772,0.5775,0.5788,0.5793,0.5735,0.5735,0.5735,0.5735,0,0.5455,0.5481,0.55,0.5531,0.5549,0.5577,0.5592,0.561,0.5615,0.5628,0.5664,0.5686,0.5717,0.5727,0.5734,0.577,0.5767,0.5765,0.5756,0.578,0.5792,0.5797,0.5735,0.5735,0.5735,0.5735,0,0,0.5489,0.5525,0.5532,0.5546,0.5575,0.5596,0.5623,0.5652,0.5667,0.569,0.5714,0.5752,0.5749,0.5767,0.5776,0.5794,0.5821,0.5789,0.579,0.5795,0.5864,0.5866,0.5871,0.5823,0.5824,0.5825,0.5861,0,0.5524,0.5572,0.5582,0.5625,0.5649,0.5653,0.5677,0.5698,0.571,0.5734,0.5748,0.5775,0.5769,0.578,0.5798,0.5814,0.5836,0.5812,0.5847,0.5848,0.5841,0.5878,0.5881,0.5914,0.5866,0.5867,0.5868,0,0.5571,0.5594,0.5638,0.5663,0.5674,0.5695,0.5722,0.5744,0.5767,0.5775,0.5794,0.58,0.5829,0.5818,0.5859,0.5842,0.5857,0.5867,0.5868,0.5873,0.586,0.5885,0.5925,0.5931,0.5876,0.5875,0.5874,0,0.5593,0.5635,0.5666,0.5678,0.5708,0.5723,0.5736,0.5758,0.5775,0.5798,0.5809,0.5836,0.5851,0.5872,0.5886,0.5876,0.5926,0.5915,0.5934,0.5934,0.5945,0.5945,0.599,0.5953,0.5953,0.5953,0.5953,0,0.5632,0.5659,0.5676,0.5696,0.5727,0.5738,0.5768,0.5781,0.5801,0.5824,0.5829,0.585,0.5866,0.589,0.59,0.5933,0.5939,0.5947,0.595,0.5947,0.5946,0.5958,0.5957,0.5954,0.5954,0.5954,0.5953,0,0.5662,0.5674,0.5709,0.5734,0.5741,0.5762,0.5783,0.5803,0.5815,0.5843,0.5851,0.587,0.5898,0.5912,0.5948,0.5955,0.5992,0.5993,0.5984,0.5985,0.6003,0.6001,0.6058,0.6067,0.6023,0.6024,0.6024,0,0.5686,0.5707,0.5733,0.5748,0.5761,0.5785,0.5802,0.5813,0.583,0.5857,0.5874,0.5902,0.5925,0.5969,0.5987,0.6014,0.6016,0.6034,0.602,0.6017,0.6017,0.6016,0.6019,0.6037,0.6037,0.6038,0.6038,0,0.5728,0.5733,0.5756,0.5781,0.58,0.582,0.584,0.5853,0.5867,0.5886,0.5914,0.5932,0.5967,0.5995,0.6023,0.6037,0.6041,0.6042,0.6048,0.6046,0.604,0.6044,0.5991,0.6041,0.6041,0.604,0.604,0.604,0.5756,0.5775,0.5796,0.5821,0.5837,0.5856,0.5875,0.5888,0.5912,0.5941,0.5946,0.5976,0.5998,0.6036,0.605,0.6074,0.6071,0.6079,0.6082,0.6084,0.6085,0.6035,0.6079,0.6079,0.6079,0.6079,0.6079,0,0.5799,0.5812,0.5835,0.5863,0.5883,0.5882,0.5904,0.5921,0.5947,0.5967,0.5989,0.6021,0.6047,0.6066,0.6093,0.6109,0.6111,0.6116,0.6115,0.6119,0.6086,0.6079,0.6114,0.6114,0.6114,0.6114,0.6114,0.6114,0.5824,0.5855,0.5862,0.5902,0.5915,0.5944,0.5956,0.5973,0.5989,0.6024,0.6046,0.6058,0.6077,0.6106,0.613,0.6135,0.6145,0.615,0.6155,0.6125,0.6121,0.6118,0.6111,0.6152,0.6152,0.6186,0.6186,0.6186]},{"header":{"parameterUnit":"m.s-1","parameterCategory":1,"la1":30.2991,"la2":30.254,"lo1":-89.0895,"lo2":-89.0444,"dy":0.0017,"dx":0.0017,"nx":28,"ny":28,"refTime":"2023-10-12T21:00:00:Z","depth":0,"parameterNumber":3,"parameterNumberName":"V-component_of_WINDS"},"data":[0,0,0,0,0,0,0,0,0,0,0,0,0,0,0,0,0,0,0,0,0,0,0,0,0,0,0,0,0,0,0,0,0,0,0,0,0,0,0,0,0,0,0,0,0,0,0,0,0,0,0,0,0,0,0,0,0,0,2.2924,2.2924,0,2.2897,2.2897,2.2897,2.2911,2.2912,2.2913,2.2913,2.2882,2.2881,2.2879,0,0,0,0,0,0,0,0,0,0,0,0,0,2.2982,2.2981,2.2924,2.2924,2.2923,2.2897,2.2897,2.2897,2.2911,2.2912,2.2913,2.2914,2.2883,2.2881,2.2879,0,0,0,0,0,0,0,0,0,0,0,0,0,2.2956,2.2981,2.2924,2.2927,2.2928,2.2898,2.2897,2.2897,2.2911,2.2912,2.2913,2.2914,2.2883,2.2881,2.2879,2.2843,0,0,2.2872,2.2871,0,0,0,0,0,0,0,0,2.2958,2.2954,2.2927,2.2927,2.2927,2.2909,2.2906,2.2878,2.2911,2.2917,2.2913,2.2915,2.289,2.2887,2.288,2.2841,2.284,2.2872,2.287,2.2869,2.2869,0,0,0,0,0,0,0,2.2959,2.2955,2.2913,2.2927,2.2927,2.2929,2.2926,2.2901,2.2897,2.2917,2.2918,2.2914,2.289,2.2882,2.2879,2.284,2.2872,2.287,2.2868,2.2867,2.2766,2.2765,0,0,0,0,0,0,2.2962,2.2957,2.2914,2.2913,2.2946,2.2927,2.2924,2.2914,2.2898,2.2897,2.2914,2.2915,2.2885,2.2882,2.2878,2.2832,2.2869,2.2867,2.2866,2.2768,2.2766,2.2765,0,0,0,0,0,0,2.2963,2.2958,2.2915,2.2935,2.293,2.2925,2.2913,2.2912,2.2904,2.2896,2.2895,2.2906,2.2886,2.2881,2.2851,2.2831,2.2866,2.2864,2.2769,2.2767,2.2765,2.2741,0,0,0,0,0,0,2.2965,2.2958,2.2946,2.2935,2.2929,2.289,2.2912,2.2911,2.2901,2.2903,2.2888,2.2887,2.2886,2.2854,2.2849,2.2828,2.2862,2.2771,2.2768,2.2766,2.2743,2.2738,2.2734,0,0,0,0,0,2.2967,2.294,2.2945,2.294,2.2913,2.2889,2.2885,2.2886,2.2899,2.2885,2.2879,2.2887,2.2835,2.2851,2.2845,2.2824,2.2772,2.2769,2.2766,2.2746,2.2739,2.2734,0,0,0,0,0,0,2.2948,2.2938,2.2944,2.2913,2.2902,2.2892,2.2874,2.288,2.2864,2.2867,2.2867,2.2864,2.2832,2.2825,2.2843,2.2786,2.2805,2.2801,2.2791,2.2785,2.2781,2.2782,2.286,0,0,0,0,0,2.294,2.2923,2.2915,2.2889,2.2883,2.288,2.2869,2.2871,2.2859,2.2853,2.2846,2.2832,2.2812,2.2799,2.278,2.2743,2.2738,2.2725,2.2721,2.2717,2.2712,2.2688,2.2682,2.2755,2.2755,2.2755,0,0,2.2924,2.2917,2.2906,2.2885,2.2876,2.2856,2.2875,2.2854,2.2838,2.285,2.282,2.2814,2.2799,2.2764,2.2748,2.2757,2.2691,2.2713,2.271,2.2707,2.2685,2.2678,2.2671,2.2753,2.2753,2.2754,0,0,2.2884,2.2878,2.2854,2.2845,2.2832,2.2829,2.2823,2.2812,2.2808,2.2779,2.2786,2.2767,2.2734,2.2721,2.2711,2.2664,2.2669,2.2658,2.2632,2.2609,2.2603,2.2598,2.2578,2.2571,2.2654,2.2654,2.2654,0,2.2865,2.2836,2.284,2.2817,2.2806,2.2817,2.2791,2.2782,2.2763,2.2754,2.2765,2.2721,2.2712,2.2673,2.2661,2.2654,2.2644,2.2658,2.2604,2.2599,2.2594,2.2575,2.2567,2.2652,2.2652,2.2653,2.2653,0,2.2812,2.2792,2.2774,2.2755,2.2743,2.2718,2.2716,2.2703,2.2706,2.2701,2.2669,2.2659,2.2637,2.2628,2.2631,2.2588,2.2594,2.2605,2.2623,2.2585,2.2567,2.256,2.265,2.2651,2.2651,2.2651,0,0,2.2758,2.2742,2.2735,2.2725,2.2711,2.2694,2.267,2.2649,2.2636,2.2622,2.2599,2.257,2.2579,2.2567,2.2568,2.2548,2.2507,2.2561,2.256,2.2548,2.2455,2.2445,2.2436,2.2512,2.251,2.2509,2.2455,0,2.2714,2.2672,2.2674,2.2633,2.2613,2.2622,2.26,2.2587,2.2583,2.2563,2.2557,2.2535,2.2551,2.2543,2.2524,2.2516,2.2488,2.2521,2.2487,2.2485,2.2487,2.2427,2.2417,2.2367,2.2448,2.2447,2.2446,0,2.2657,2.2642,2.2599,2.2586,2.2577,2.2557,2.2537,2.2519,2.2504,2.2502,2.2488,2.2491,2.2463,2.2484,2.2444,2.2466,2.2452,2.2446,2.2444,2.2438,2.2461,2.2417,2.2351,2.2342,2.2436,2.2437,2.2438,0,2.2618,2.2587,2.2556,2.2548,2.2533,2.2518,2.251,2.2497,2.2483,2.2465,2.2456,2.2435,2.2422,2.2404,2.2401,2.2417,2.2359,2.2381,2.2353,2.2353,2.2338,2.2338,2.2265,2.2335,2.2335,2.2335,2.2335,0,2.2567,2.2539,2.2538,2.2519,2.2488,2.249,2.2458,2.2452,2.2439,2.2417,2.2424,2.2403,2.2401,2.2379,2.2376,2.234,2.2336,2.233,2.2329,2.2328,2.2328,2.2317,2.2319,2.2333,2.2333,2.2334,2.2334,0,2.2517,2.2515,2.2482,2.247,2.2466,2.2443,2.2431,2.2412,2.2408,2.238,2.2373,2.2366,2.2339,2.2335,2.2304,2.2302,2.2258,2.2262,2.2263,2.2262,2.2233,2.2235,2.2148,2.2135,2.2216,2.2216,2.2215,0,2.2483,2.2462,2.2447,2.2433,2.2425,2.2403,2.2389,2.239,2.2375,2.2355,2.2337,2.2312,2.2291,2.2248,2.2238,2.2213,2.2215,2.2186,2.2211,2.2209,2.221,2.2209,2.2205,2.218,2.2179,2.2179,2.2178,0,2.2421,2.2421,2.2402,2.2381,2.2365,2.2348,2.2333,2.2321,2.2319,2.2301,2.2275,2.2259,2.2226,2.2199,2.2175,2.2164,2.2169,2.2171,2.2162,2.2159,2.2158,2.2154,2.2246,2.2172,2.2173,2.2173,2.2173,2.2174,2.2375,2.2356,2.2342,2.2319,2.2308,2.2293,2.2273,2.2267,2.2245,2.2219,2.2221,2.219,2.2173,2.214,2.2129,2.2103,2.2112,2.2101,2.2097,2.2093,2.2088,2.2166,2.2099,2.2099,2.2099,2.2099,2.2099,0,2.2311,2.2302,2.2282,2.226,2.2241,2.225,2.2233,2.2216,2.2189,2.2174,2.2153,2.2121,2.2094,2.2083,2.2056,2.2037,2.2038,2.203,2.2029,2.2026,2.2084,2.2092,2.2029,2.2029,2.2029,2.2029,2.2029,2.2029,2.2275,2.2242,2.224,2.2199,2.2191,2.2162,2.2151,2.2136,2.2123,2.2087,2.2065,2.2058,2.2043,2.2015,2.199,2.1987,2.1974,2.1964,2.1961,2.2015,2.2022,2.2029,2.2036,2.1962,2.1962,2.1905,2.1904,2.1904]}]]